Terug naar catalogus

COSMOS 1275 DEB

ActiefPO
NORAD 14740·DEBRIS·🇷🇺 Russia

Gelanceerd Jun 4, 1981 vanaf Plesetsk Cosmodrome

Loading…

Volgende Passages (komende 24 uur)

TLE

VersSource: Space-Track

Epoch: Sep 14, 2026, 06:24 UTC

1 14740U 81053JV  26257.26707551  .00001110  00000-0  88692-3 0  9997
2 14740  83.1296 274.8358 0101371 143.1566 346.7152 13.87695632130263

Volg COSMOS 1275 DEB in realtime met AllMySat

Download on the App Store